Location: Berlin
(52.5171°N, 13.3759°E)
Time: 22:00:13
(UTC+01:00)

ISS - Pass Details

Date: 16 November 2017
Orbit: 402 x 407 km, 51.6° (Epoch: 21 November)

Event Time Altitude Azimuth Distance (km) Brightness Sun altitude
Exits shadow 05:38:09 15° 208° (SSW) 1,201 -1.6 -16.8°
Drops below altitude 10° 05:39:40 10° 181° (S) 1,450 -0.9 -16.5°
Sets 05:42:21 0° 157° (SSE) 2,305 0.5 -16.1°
